This is the latest recevied weather packets stored in our database for station/object SV1BYK-4. If no packets are shown the sender has not sent any weather packets the latest 10 day(s).
| Time | Temp. | Humidity | Pressure | Rain* | Wind** | Luminosity | Snow |
|---|---|---|---|---|---|---|---|
| 1777884338 | 17.78° C | 37% | 1023.8 hPa | 0 mm | - | 0 W/m² | - |
| 1777880017 | 16.11° C | 43% | 1023.7 hPa | 0 mm | - | 0 W/m² | - |
| 1777877317 | 15° C | 47% | 1023.4 hPa | 0 mm | - | 0 W/m² | - |
| 1777861657 | 10° C | 62% | 1022.2 hPa | 0 mm | - | 0 W/m² | - |
| 1777858957 | 10.56° C | 60% | 1022.2 hPa | 0 mm | - | 0 W/m² | - |
| 1777856257 | 10° C | 60% | 1022 hPa | 0 mm | - | 0 W/m² | - |
| 1777850857 | 11.67° C | 55% | 1022 hPa | 0 mm | - | 0 W/m² | - |
| 1777850317 | 11.11° C | 58% | 1022 hPa | 0 mm | - | 0 W/m² | - |
| 1777840057 | 11.67° C | 56% | 1022 hPa | 0 mm | - | 0 W/m² | - |
| 1777837897 | 12.22° C | 56% | 1022.1 hPa | 0 mm | - | 0 W/m² | - |
| 1777833577 | 12.78° C | 51% | 1021.7 hPa | 0 mm | - | 0 W/m² | - |
| 1777832497 | 12.78° C | 52% | 1021.2 hPa | 0 mm | - | 0 W/m² | - |
| 1777828717 | 12.78° C | 51% | 1020.7 hPa | 0 mm | - | 0 W/m² | - |
| 1777826557 | 13.33° C | 49% | 1020.2 hPa | 0 mm | - | 0 W/m² | - |
| 1777822777 | 14.44° C | 46% | 1019.6 hPa | 0 mm | - | 0 W/m² | - |
| 1777819537 | 15° C | 44% | 1019.4 hPa | 0 mm | - | 0 W/m² | - |
| 1777816837 | 16.67° C | 40% | 1019.3 hPa | 0 mm | - | 0 W/m² | - |
| 1777802257 | 11.67° C | 57% | 1019.5 hPa | 0 mm | - | 0 W/m² | - |
| 1777799557 | 12.22° C | 55% | 1019.6 hPa | 0 mm | - | 0 W/m² | - |
| 1777790377 | 8.89° C | 70% | 1018.7 hPa | 0.25 mm | - | 0 W/m² | - |
| 1777789837 | 8.89° C | 72% | 1019 hPa | 0.25 mm | - | 0 W/m² | - |
| 1777788757 | 8.33° C | 77% | 1018.8 hPa | 0.25 mm | - | 0 W/m² | - |
| 1777788217 | 8.33° C | 77% | 1018.6 hPa | 0.25 mm | - | 0 W/m² | - |
| 1777782277 | 9.44° C | 65% | 1018.2 hPa | 0 mm | - | 0 W/m² | - |
| 1777779577 | 9.44° C | 68% | 1017.6 hPa | 0 mm | - | 0 W/m² | - |
* Rain latest hour (hover to see other rain measurements)
** Current wind speed in m/s (hover to see current wind gust speed)